| time (UTC) | temp C | wind direction | speed KPH | gust KPH | rain 1hr cm | rain 24hr cm | rain mn cm | humidity % | barometer mb |
| 20260906103548 | 19 | 59 | 4.8 | 6.4 | 0.00 | 0.00 | 0.00 | 88 | 1015.2 |
| 20260906103043 | 19 | 115 | 1.6 | 9.7 | 0.00 | 0.00 | 0.00 | 88 | 1015.6 |
| 20260906102544 | 19 | 54 | 3.2 | 4.8 | 0.00 | 0.00 | 0.00 | 89 | 1015.5 |
| 20260906102039 | 20 | 103 | 1.6 | 4.8 | 0.00 | 0.00 | 0.00 | 88 | 1015.5 |
| 20260906101539 | 20 | 98 | 1.6 | 4.8 | 0.00 | 0.00 | 0.00 | 88 | 1015.5 |
| 20260906101033 | 20 | 71 | 3.2 | 4.8 | 0.00 | 0.00 | 0.00 | 88 | 1015.4 |
| 20260906100529 | 20 | 46 | 1.6 | 4.8 | 0.00 | 0.00 | 0.00 | 88 | 1015.4 |
| 20260906100024 | 20 | 11 | 1.6 | 3.2 | 0.00 | 0.00 | 0.00 | 87 | 1015.4 |
| 20260906095524 | 20 | 59 | 3.2 | 4.8 | 0.00 | 0.00 | 0.00 | 87 | 1015.3 |
| 20260906095020 | 20 | 91 | 3.2 | 9.7 | 0.00 | 0.00 | 0.00 | 86 | 1015.3 |
| 20260906094518 | 20 | 32 | 4.8 | 9.7 | 0.00 | 0.00 | 0.00 | 87 | 1015.3 |
| 20260906094014 | 20 | 48 | 1.6 | 4.8 | 0.00 | 0.00 | 0.00 | 86 | 1015.4 |
| 20260906093510 | 21 | 12 | 1.6 | 4.8 | 0.00 | 0.00 | 0.00 | 88 | 1015.4 |
| 20260906093010 | 21 | 43 | 1.6 | 11.3 | 0.00 | 0.00 | 0.00 | 89 | 1015.4 |
| 20260906092505 | 21 | 71 | 1.6 | 3.2 | 0.00 | 0.00 | 0.00 | 90 | 1015.2 |
| 20260906092000 | 21 | 109 | 1.6 | 6.4 | 0.00 | 0.00 | 0.00 | 90 | 1015.2 |
| 20260906091456 | 21 | 49 | 3.2 | 4.8 | 0.00 | 0.00 | 0.00 | 91 | 1015.1 |
| 20260906090953 | 21 | 37 | 3.2 | 11.3 | 0.00 | 0.00 | 0.00 | 92 | 1015.1 |
| 20260906090447 | 21 | 64 | 3.2 | 9.7 | 0.00 | 0.00 | 0.00 | 93 | 1015.1 |
| 20260906085947 | 21 | 78 | 3.2 | 6.4 | 0.00 | 0.00 | 0.00 | 93 | 1015.1 |
| 20260906085446 | 21 | 43 | 3.2 | 4.8 | 0.00 | 0.00 | 0.00 | 94 | 1015.0 |
| 20260906084945 | 21 | 74 | 3.2 | 4.8 | 0.00 | 0.00 | 0.00 | 94 | 1014.9 |
| 20260906084441 | 21 | 18 | 6.4 | 9.7 | 0.00 | 0.00 | 0.00 | 94 | 1014.8 |
| 20260906083939 | 22 | 49 | 3.2 | 4.8 | 0.00 | 0.00 | 0.00 | 94 | 1014.7 |
| 20260906083435 | 22 | 32 | 4.8 | 4.8 | 0.00 | 0.00 | 0.00 | 94 | 1014.8 |
| 20260906082934 | 22 | 89 | 1.6 | 4.8 | 0.00 | 0.00 | 0.00 | 95 | 1014.8 |
| 20260906082430 | 22 | 46 | 4.8 | 4.8 | 0.00 | 0.00 | 0.00 | 95 | 1014.7 |
| 20260906081925 | 21 | 86 | 3.2 | 9.7 | 0.00 | 0.00 | 0.00 | 95 | 1014.7 |
| 20260906081421 | 21 | 45 | 3.2 | 3.2 | 0.00 | 0.00 | 0.00 | 95 | 1014.8 |
| 20260906080917 | 21 | 56 | 1.6 | 3.2 | 0.00 | 0.00 | 0.00 | 95 | 1014.9 |
| 20260906080414 | 21 | 26 | 1.6 | 4.8 | 0.00 | 0.00 | 0.00 | 96 | 1014.8 |
| 20260906075912 | 21 | 109 | 1.6 | 3.2 | 0.00 | 0.00 | 0.00 | 96 | 1014.7 |
| 20260906075408 | 21 | 53 | 1.6 | 3.2 | 0.00 | 0.00 | 0.00 | 96 | 1014.6 |
| 20260906074903 | 21 | 31 | 3.2 | 11.3 | 0.00 | 0.00 | 0.00 | 96 | 1014.6 |
| 20260906074402 | 21 | 67 | 3.2 | 4.8 | 0.00 | 0.00 | 0.00 | 96 | 1014.6 |
| 20260906073901 | 21 | 34 | 0.0 | 3.2 | 0.00 | 0.00 | 0.00 | 96 | 1014.7 |
| 20260906073356 | 21 | 47 | 3.2 | 3.2 | 0.00 | 0.00 | 0.00 | 96 | 1014.6 |
| 20260906072853 | 22 | 43 | 0.0 | 3.2 | 0.00 | 0.00 | 0.00 | 96 | 1014.7 |
| 20260906072348 | 21 | 55 | 3.2 | 4.8 | 0.00 | 0.00 | 0.00 | 96 | 1014.6 |
| 20260906071844 | 21 | 81 | 1.6 | 1.6 | 0.00 | 0.00 | 0.00 | 96 | 1014.6 |
| 20260906071339 | 21 | 81 | 0.0 | 0.0 | 0.00 | 0.00 | 0.00 | 96 | 1014.7 |
| 20260906070835 | 21 | 16 | 0.0 | 0.0 | 0.00 | 0.00 | 0.00 | 96 | 1014.5 |
| 20260906070331 | 21 | 35 | 1.6 | 1.6 | 0.00 | 0.00 | 0.00 | 96 | 1014.6 |
| 20260906065826 | 21 | 20 | 0.0 | 0.0 | 0.00 | 0.00 | 0.00 | 96 | 1014.6 |
| 20260906065321 | 21 | 345 | 0.0 | 1.6 | 0.00 | 0.00 | 0.00 | 96 | 1014.6 |
| 20260906064817 | 21 | 347 | 0.0 | 1.6 | 0.00 | 0.00 | 0.00 | 96 | 1014.7 |
| 20260906064313 | 21 | 355 | 0.0 | 0.0 | 0.00 | 0.00 | 0.00 | 96 | 1014.7 |
| 20260906063812 | 21 | 1 | 0.0 | 1.6 | 0.00 | 0.00 | 0.00 | 95 | 1014.8 |
| 20260906063308 | 22 | 60 | 0.0 | 0.0 | 0.00 | 0.00 | 0.00 | 95 | 1014.8 |
| 20260906062803 | 22 | 60 | 0.0 | 0.0 | 0.00 | 0.00 | 0.00 | 95 | 1014.8 |
| 20260906062305 | 22 | 60 | 0.0 | 0.0 | 0.00 | 0.00 | 0.00 | 95 | 1014.5 |
| 20260906061758 | 22 | 60 | 0.0 | 0.0 | 0.00 | 0.00 | 0.00 | 95 | 1014.7 |
| 20260906061254 | 22 | 60 | 0.0 | 0.0 | 0.00 | 0.00 | 0.00 | 95 | 1014.8 |
| 20260906060749 | 22 | 60 | 0.0 | 0.0 | 0.00 | 0.00 | 0.00 | 95 | 1014.7 |
| 20260906060247 | 22 | 60 | 0.0 | 1.6 | 0.00 | 0.00 | 0.00 | 95 | 1014.6 |
| 20260906055742 | 22 | 60 | 0.0 | 1.6 | 0.00 | 0.00 | 0.00 | 95 | 1014.8 |
| 20260906055237 | 22 | 51 | 0.0 | 0.0 | 0.00 | 0.00 | 0.00 | 95 | 1014.7 |
| 20260906054732 | 22 | 19 | 0.0 | 0.0 | 0.00 | 0.00 | 0.00 | 95 | 1014.6 |
| 20260906054227 | 22 | 5 | 0.0 | 1.6 | 0.00 | 0.00 | 0.00 | 95 | 1014.5 |
| 20260906053724 | 22 | 46 | 0.0 | 0.0 | 0.00 | 0.00 | 0.00 | 95 | 1014.6 |
| 20260906053219 | 22 | 46 | 0.0 | 1.6 | 0.00 | 0.00 | 0.00 | 95 | 1014.6 |
| 20260906052714 | 22 | 4 | 0.0 | 0.0 | 0.00 | 0.00 | 0.00 | 95 | 1014.5 |
| 20260906052211 | 22 | 4 | 0.0 | 0.0 | 0.00 | 0.00 | 0.00 | 95 | 1014.5 |
| 20260906051708 | 22 | 4 | 0.0 | 1.6 | 0.00 | 0.00 | 0.00 | 94 | 1014.7 |
| 20260906051207 | 22 | 18 | 0.0 | 0.0 | 0.00 | 0.00 | 0.00 | 94 | 1014.4 |
| 20260906050702 | 22 | 3 | 1.6 | 1.6 | 0.00 | 0.00 | 0.00 | 94 | 1014.5 |
| 20260906050157 | 22 | 335 | 1.6 | 4.8 | 0.00 | 0.00 | 0.00 | 94 | 1014.4 |
| 20260906045655 | 22 | 65 | 0.0 | 1.6 | 0.00 | 0.00 | 0.00 | 93 | 1014.4 |
| 20260906045151 | 22 | 32 | 0.0 | 1.6 | 0.00 | 0.00 | 0.00 | 93 | 1014.3 |
| 20260906044647 | 22 | 23 | 1.6 | 3.2 | 0.00 | 0.00 | 0.00 | 93 | 1014.3 |
| 20260906044142 | 22 | 9 | 1.6 | 3.2 | 0.00 | 0.00 | 0.00 | 92 | 1014.3 |
| 20260906043638 | 22 | 31 | 1.6 | 3.2 | 0.00 | 0.00 | 0.00 | 92 | 1014.4 |
| 20260906043134 | 22 | 70 | 0.0 | 1.6 | 0.00 | 0.00 | 0.00 | 92 | 1014.1 |
| 20260906042633 | 22 | 58 | 1.6 | 3.2 | 0.00 | 0.00 | 0.00 | 92 | 1014.0 |
| 20260906042127 | 22 | 303 | 0.0 | 3.2 | 0.00 | 0.00 | 0.00 | 92 | 1013.9 |
| 20260906041623 | 22 | 18 | 0.0 | 4.8 | 0.00 | 0.00 | 0.00 | 93 | 1014.2 |
| 20260906041124 | 22 | 70 | 1.6 | 3.2 | 0.00 | 0.00 | 0.00 | 93 | 1014.1 |
| 20260906040619 | 22 | 39 | 1.6 | 3.2 | 0.00 | 0.00 | 0.00 | 93 | 1014.2 |
| 20260906040115 | 22 | 299 | 1.6 | 3.2 | 0.00 | 0.00 | 0.00 | 93 | 1014.1 |
| 20260906035610 | 22 | 43 | 1.6 | 3.2 | 0.00 | 0.00 | 0.00 | 93 | 1014.1 |
| 20260906035106 | 22 | 12 | 0.0 | 4.8 | 0.00 | 0.00 | 0.00 | 92 | 1014.3 |
| 20260906034605 | 22 | 51 | 0.0 | 3.2 | 0.00 | 0.00 | 0.00 | 92 | 1014.3 |
| 20260906034100 | 22 | 8 | 0.0 | 4.8 | 0.00 | 0.00 | 0.00 | 92 | 1014.4 |
| 20260906033556 | 22 | 32 | 0.0 | 3.2 | 0.00 | 0.00 | 0.00 | 92 | 1014.2 |
| 20260906033051 | 23 | 346 | 1.6 | 4.8 | 0.00 | 0.00 | 0.00 | 91 | 1014.1 |
| 20260906032548 | 23 | 35 | 1.6 | 4.8 | 0.00 | 0.00 | 0.00 | 91 | 1014.2 |
| 20260906032047 | 23 | 57 | 1.6 | 6.4 | 0.00 | 0.00 | 0.00 | 91 | 1014.0 |
| 20260906031543 | 23 | 46 | 3.2 | 4.8 | 0.00 | 0.00 | 0.00 | 91 | 1014.0 |
| 20260906031038 | 23 | 60 | 1.6 | 4.8 | 0.00 | 0.00 | 0.00 | 91 | 1014.0 |
| 20260906030537 | 23 | 11 | 3.2 | 3.2 | 0.00 | 0.00 | 0.00 | 90 | 1014.2 |
| 20260906030038 | 23 | 31 | 1.6 | 6.4 | 0.00 | 0.00 | 0.00 | 90 | 1014.1 |
| 20260906025537 | 23 | 16 | 1.6 | 3.2 | 0.00 | 0.00 | 0.00 | 90 | 1014.3 |
| 20260906025036 | 23 | 343 | 1.6 | 9.7 | 0.00 | 0.00 | 0.00 | 90 | 1014.0 |
| 20260906024532 | 23 | 32 | 3.2 | 4.8 | 0.00 | 0.00 | 0.00 | 89 | 1014.0 |
| 20260906024031 | 24 | 34 | 3.2 | 4.8 | 0.00 | 0.00 | 0.00 | 89 | 1014.0 |
| 20260906023528 | 24 | 28 | 3.2 | 3.2 | 0.00 | 0.00 | 0.00 | 88 | 1014.0 |
| 20260906023022 | 24 | 65 | 1.6 | 6.4 | 0.00 | 0.00 | 0.00 | 88 | 1014.1 |
| 20260906022518 | 24 | 342 | 3.2 | 4.8 | 0.00 | 0.00 | 0.00 | 88 | 1013.9 |
| 20260906022013 | 24 | 27 | 1.6 | 3.2 | 0.00 | 0.00 | 0.00 | 87 | 1013.9 |
| 20260906021508 | 25 | 45 | 3.2 | 6.4 | 0.00 | 0.00 | 0.00 | 87 | 1013.8 |
| 20260906021002 | 25 | 38 | 1.6 | 1.6 | 0.00 | 0.00 | 0.00 | 87 | 1013.6 |
| 20260906020501 | 25 | 26 | 3.2 | 4.8 | 0.00 | 0.00 | 0.00 | 86 | 1013.4 |
| 20260906020001 | 25 | 64 | 1.6 | 9.7 | 0.00 | 0.00 | 0.00 | 86 | 1013.4 |
| 20260906015500 | 25 | 39 | 3.2 | 9.7 | 0.00 | 0.00 | 0.00 | 86 | 1013.3 |
| 20260906015000 | 25 | 342 | 6.4 | 9.7 | 0.00 | 0.00 | 0.00 | 86 | 1013.3 |
| 20260906014455 | 25 | 12 | 3.2 | 4.8 | 0.00 | 0.00 | 0.00 | 85 | 1013.4 |
| 20260906013951 | 26 | 10 | 1.6 | 4.8 | 0.00 | 0.00 | 0.00 | 84 | 1013.2 |
| 20260906013447 | 26 | 19 | 3.2 | 4.8 | 0.00 | 0.00 | 0.00 | 84 | 1013.2 |
| 20260906012943 | 26 | 351 | 1.6 | 3.2 | 0.00 | 0.00 | 0.00 | 84 | 1013.0 |
| 20260906012443 | 26 | 48 | 0.0 | 3.2 | 0.00 | 0.00 | 0.00 | 83 | 1013.1 |
| 20260906011942 | 26 | 11 | 3.2 | 4.8 | 0.00 | 0.00 | 0.00 | 83 | 1013.0 |
| 20260906011437 | 26 | 31 | 1.6 | 6.4 | 0.00 | 0.00 | 0.00 | 83 | 1013.1 |
| 20260906010933 | 26 | 333 | 3.2 | 3.2 | 0.00 | 0.00 | 0.00 | 83 | 1013.0 |
| 20260906010428 | 26 | 45 | 1.6 | 4.8 | 0.00 | 0.00 | 0.00 | 83 | 1012.8 |
| 20260906005924 | 27 | 335 | 1.6 | 1.6 | 0.00 | 0.00 | 0.00 | 82 | 1012.9 |
| 20260906005424 | 27 | 28 | 1.6 | 4.8 | 0.00 | 0.00 | 0.00 | 81 | 1012.6 |
| 20260906004922 | 27 | 35 | 3.2 | 4.8 | 0.00 | 0.00 | 0.00 | 81 | 1012.5 |
| 20260906004416 | 27 | 53 | 1.6 | 4.8 | 0.00 | 0.00 | 0.00 | 80 | 1012.4 |
| 20260906003912 | 27 | 41 | 4.8 | 6.4 | 0.00 | 0.00 | 0.00 | 80 | 1012.3 |
| 20260906003407 | 27 | 30 | 3.2 | 4.8 | 0.00 | 0.00 | 0.00 | 80 | 1012.4 |
| 20260906002903 | 27 | 315 | 3.2 | 11.3 | 0.00 | 0.00 | 0.00 | 81 | 1012.4 |
| 20260906002402 | 28 | 303 | 3.2 | 4.8 | 0.00 | 0.00 | 0.00 | 81 | 1012.3 |
| 20260906001857 | 28 | 330 | 1.6 | 3.2 | 0.00 | 0.00 | 0.00 | 80 | 1012.3 |
| 20260906001353 | 28 | 27 | 3.2 | 3.2 | 0.00 | 0.00 | 0.00 | 79 | 1012.3 |
| 20260906000853 | 28 | 330 | 6.4 | 9.7 | 0.00 | 0.00 | 0.00 | 79 | 1012.3 |
| 20260906000355 | 28 | 26 | 3.2 | 9.7 | 0.00 | 0.00 | 0.00 | 78 | 1012.3 |
| 20260905235849 | 28 | 296 | 1.6 | 11.3 | 0.00 | 0.00 | 0.00 | 78 | 1012.2 |
| 20260905235343 | 29 | 327 | 3.2 | 6.4 | 0.00 | 0.00 | 0.00 | 78 | 1012.3 |
| 20260905234838 | 29 | 68 | 3.2 | 6.4 | 0.00 | 0.00 | 0.00 | 79 | 1012.2 |
| 20260905234333 | 30 | 21 | 3.2 | 4.8 | 0.00 | 0.00 | 0.00 | 78 | 1012.2 |
| 20260905233829 | 30 | 317 | 1.6 | 3.2 | 0.00 | 0.00 | 0.00 | 78 | 1012.1 |
| 20260905233323 | 30 | 299 | 6.4 | 9.7 | 0.00 | 0.00 | 0.00 | 78 | 1012.1 |
| 20260905232822 | 30 | 52 | 0.0 | 4.8 | 0.00 | 0.00 | 0.00 | 78 | 1011.9 |
| 20260905232319 | 30 | 17 | 1.6 | 6.4 | 0.00 | 0.00 | 0.00 | 76 | 1011.9 |
| 20260905231814 | 31 | 13 | 1.6 | 3.2 | 0.00 | 0.00 | 0.00 | 75 | 1011.9 |
| 20260905231309 | 31 | 328 | 3.2 | 4.8 | 0.00 | 0.00 | 0.00 | 73 | 1011.9 |
| 20260905230806 | 31 | 70 | 3.2 | 4.8 | 0.00 | 0.00 | 0.00 | 73 | 1011.6 |
| 20260905230304 | 32 | 61 | 3.2 | 11.3 | 0.00 | 0.00 | 0.00 | 72 | 1011.5 |
| 20260905225803 | 32 | 356 | 4.8 | 4.8 | 0.00 | 0.00 | 0.00 | 71 | 1011.7 |
| 20260905225258 | 32 | 27 | 3.2 | 9.7 | 0.00 | 0.00 | 0.00 | 71 | 1011.7 |
| 20260905224758 | 32 | 343 | 6.4 | 11.3 | 0.00 | 0.00 | 0.00 | 69 | 1011.5 |
| 20260905224253 | 32 | 5 | 1.6 | 6.4 | 0.00 | 0.00 | 0.00 | 71 | 1011.5 |
| 20260905223749 | 32 | 339 | 3.2 | 6.4 | 0.00 | 0.00 | 0.00 | 71 | 1011.4 |
| 20260905223246 | 32 | 354 | 4.8 | 6.4 | 0.00 | 0.00 | 0.00 | 71 | 1011.4 |
| 20260905222741 | 32 | 265 | 6.4 | 6.4 | 0.00 | 0.00 | 0.00 | 69 | 1011.5 |
| 20260905222240 | 33 | 33 | 3.2 | 6.4 | 0.00 | 0.00 | 0.00 | 68 | 1011.6 |
| 20260905221736 | 34 | 44 | 1.6 | 4.8 | 0.00 | 0.00 | 0.00 | 67 | 1011.5 |
| 20260905221233 | 33 | 48 | 1.6 | 3.2 | 0.00 | 0.00 | 0.00 | 67 | 1011.5 |
| 20260905220728 | 33 | 315 | 6.4 | 9.7 | 0.00 | 0.00 | 0.00 | 66 | 1011.4 |
| 20260905220224 | 33 | 347 | 3.2 | 11.3 | 0.00 | 0.00 | 0.00 | 67 | 1011.4 |
| 20260905215724 | 33 | 321 | 6.4 | 9.7 | 0.00 | 0.00 | 0.00 | 67 | 1011.4 |
| 20260905215220 | 33 | 303 | 3.2 | 6.4 | 0.00 | 0.00 | 0.00 | 67 | 1011.3 |
| 20260905214715 | 33 | 343 | 3.2 | 6.4 | 0.00 | 0.00 | 0.00 | 67 | 1011.4 |
| 20260905214210 | 33 | 284 | 3.2 | 4.8 | 0.00 | 0.00 | 0.00 | 65 | 1011.4 |
| 20260905213706 | 33 | 270 | 3.2 | 4.8 | 0.00 | 0.00 | 0.00 | 67 | 1011.5 |
| 20260905213202 | 33 | 277 | 1.6 | 3.2 | 0.00 | 0.00 | 0.00 | 64 | 1011.5 |
| 20260905212656 | 33 | 272 | 3.2 | 3.2 | 0.00 | 0.00 | 0.00 | 64 | 1011.6 |
| 20260905212156 | 34 | 309 | 1.6 | 3.2 | 0.00 | 0.00 | 0.00 | 60 | 1011.4 |
| 20260905211650 | 34 | 271 | 1.6 | 4.8 | 0.00 | 0.00 | 0.00 | 60 | 1011.5 |
| 20260905211146 | 33 | 327 | 0.0 | 4.8 | 0.00 | 0.00 | 0.00 | 62 | 1011.7 |
| 20260905210643 | 34 | 269 | 6.4 | 6.4 | 0.00 | 0.00 | 0.00 | 61 | 1011.5 |
| 20260905210142 | 34 | 255 | 3.2 | 4.8 | 0.00 | 0.00 | 0.00 | 63 | 1011.6 |
| 20260905205641 | 34 | 256 | 3.2 | 4.8 | 0.00 | 0.00 | 0.00 | 67 | 1011.8 |
| 20260905205141 | 33 | 255 | 3.2 | 4.8 | 0.00 | 0.00 | 0.00 | 64 | 1011.6 |
| 20260905204641 | 33 | 296 | 3.2 | 4.8 | 0.00 | 0.00 | 0.00 | 65 | 1011.9 |
| 20260905204136 | 33 | 255 | 4.8 | 6.4 | 0.00 | 0.00 | 0.00 | 64 | 1011.9 |
| 20260905203631 | 33 | 291 | 1.6 | 6.4 | 0.00 | 0.00 | 0.00 | 64 | 1011.8 |
| 20260905203126 | 33 | 291 | 3.2 | 4.8 | 0.00 | 0.00 | 0.00 | 62 | 1011.9 |
| 20260905202622 | 32 | 296 | 3.2 | 6.4 | 0.00 | 0.00 | 0.00 | 61 | 1011.7 |
| 20260905202117 | 32 | 278 | 4.8 | 6.4 | 0.00 | 0.00 | 0.00 | 58 | 1011.9 |
| 20260905201612 | 32 | 318 | 1.6 | 9.7 | 0.00 | 0.00 | 0.00 | 59 | 1012.1 |
| 20260905201111 | 32 | 278 | 3.2 | 11.3 | 0.00 | 0.00 | 0.00 | 57 | 1012.1 |
| 20260905200607 | 30 | 286 | 4.8 | 9.7 | 0.00 | 0.00 | 0.00 | 56 | 1012.1 |
| 20260905195555 | 30 | 257 | 4.8 | 11.3 | 0.00 | 0.00 | 0.00 | 64 | 1012.3 |
| 20260905195051 | 30 | 300 | 4.8 | 11.3 | 0.00 | 0.00 | 0.00 | 67 | 1012.4 |
| 20260905194551 | 31 | 286 | 4.8 | 6.4 | 0.00 | 0.00 | 0.00 | 73 | 1012.5 |
| 20260905194050 | 32 | 323 | 3.2 | 6.4 | 0.00 | 0.00 | 0.00 | 69 | 1012.4 |
| 20260905193545 | 32 | 276 | 1.6 | 4.8 | 0.00 | 0.00 | 0.00 | 69 | 1012.5 |
| 20260905193040 | 33 | 277 | 1.6 | 3.2 | 0.00 | 0.00 | 0.00 | 67 | 1012.3 |
| 20260905192535 | 33 | 347 | 1.6 | 4.8 | 0.00 | 0.00 | 0.00 | 64 | 1012.2 |
| 20260905192032 | 35 | 20 | 1.6 | 1.6 | 0.00 | 0.00 | 0.00 | 62 | 1012.5 |
| 20260905191531 | 35 | 350 | 1.6 | 3.2 | 0.00 | 0.00 | 0.00 | 62 | 1012.6 |
| 20260905191030 | 35 | 357 | 1.6 | 3.2 | 0.00 | 0.00 | 0.00 | 61 | 1012.5 |
| 20260905190528 | 35 | 94 | 3.2 | 3.2 | 0.00 | 0.00 | 0.00 | 61 | 1012.4 |
| 20260905190028 | 35 | 95 | 0.0 | 0.0 | 0.00 | 0.00 | 0.00 | 61 | 1012.6 |
| 20260905185527 | 34 | 67 | 1.6 | 3.2 | 0.00 | 0.00 | 0.00 | 62 | 1012.6 |
| 20260905185027 | 34 | 302 | 3.2 | 3.2 | 0.00 | 0.00 | 0.00 | 61 | 1012.8 |
| 20260905184527 | 33 | 165 | 1.6 | 6.4 | 0.00 | 0.00 | 0.00 | 65 | 1012.9 |
| 20260905184025 | 33 | 278 | 3.2 | 4.8 | 0.00 | 0.00 | 0.00 | 64 | 1013.0 |
| 20260905183525 | 34 | 274 | 4.8 | 9.7 | 0.00 | 0.00 | 0.00 | 61 | 1013.1 |
| 20260905183021 | 34 | 229 | 1.6 | 3.2 | 0.00 | 0.00 | 0.00 | 64 | 1013.3 |
| 20260905182520 | 34 | 277 | 1.6 | 3.2 | 0.00 | 0.00 | 0.00 | 64 | 1013.1 |
| 20260905182015 | 33 | 263 | 4.8 | 4.8 | 0.00 | 0.00 | 0.00 | 63 | 1013.3 |
| 20260905181510 | 33 | 272 | 3.2 | 3.2 | 0.00 | 0.00 | 0.00 | 64 | 1013.2 |
| 20260905181009 | 34 | 275 | 3.2 | 4.8 | 0.00 | 0.00 | 0.00 | 65 | 1013.4 |
| 20260905180504 | 33 | 280 | 0.0 | 3.2 | 0.00 | 0.00 | 0.00 | 64 | 1013.4 |
| 20260905175959 | 33 | 164 | 1.6 | 4.8 | 0.00 | 0.00 | 0.00 | 66 | 1013.5 |
| 20260905175458 | 33 | 88 | 3.2 | 6.4 | 0.00 | 0.00 | 0.00 | 65 | 1013.6 |
| 20260905174954 | 33 | 66 | 1.6 | 3.2 | 0.00 | 0.00 | 0.00 | 64 | 1013.9 |
| 20260905174449 | 33 | 251 | 3.2 | 3.2 | 0.00 | 0.00 | 0.00 | 66 | 1013.8 |
| 20260905173945 | 32 | 317 | 0.0 | 3.2 | 0.00 | 0.00 | 0.00 | 66 | 1013.7 |
| 20260905173441 | 32 | 221 | 1.6 | 6.4 | 0.00 | 0.00 | 0.00 | 69 | 1013.6 |
| 20260905172936 | 32 | 170 | 1.6 | 4.8 | 0.00 | 0.00 | 0.00 | 66 | 1013.7 |
| 20260905172434 | 32 | 101 | 6.4 | 6.4 | 0.00 | 0.00 | 0.00 | 66 | 1013.7 |
| 20260905171930 | 32 | 44 | 1.6 | 9.7 | 0.00 | 0.00 | 0.00 | 65 | 1013.9 |
| 20260905171427 | 32 | 72 | 0.0 | 3.2 | 0.00 | 0.00 | 0.00 | 66 | 1013.7 |
| 20260905170923 | 32 | 158 | 1.6 | 4.8 | 0.00 | 0.00 | 0.00 | 66 | 1013.7 |
| 20260905170419 | 32 | 52 | 3.2 | 6.4 | 0.00 | 0.00 | 0.00 | 67 | 1014.0 |
| 20260905165918 | 32 | 214 | 1.6 | 3.2 | 0.00 | 0.00 | 0.00 | 65 | 1014.1 |
| 20260905165413 | 32 | 117 | 3.2 | 4.8 | 0.00 | 0.00 | 0.00 | 66 | 1014.1 |
| 20260905164908 | 32 | 142 | 3.2 | 6.4 | 0.00 | 0.00 | 0.00 | 66 | 1014.1 |
| 20260905164403 | 31 | 137 | 0.0 | 4.8 | 0.00 | 0.00 | 0.00 | 65 | 1014.2 |
| 20260905163858 | 31 | 85 | 6.4 | 9.7 | 0.00 | 0.00 | 0.00 | 65 | 1014.0 |
| 20260905163354 | 31 | 158 | 0.0 | 4.8 | 0.00 | 0.00 | 0.00 | 68 | 1014.1 |
| 20260905162850 | 30 | 158 | 3.2 | 4.8 | 0.00 | 0.00 | 0.00 | 68 | 1014.1 |
| 20260905162350 | 30 | 132 | 3.2 | 9.7 | 0.00 | 0.00 | 0.00 | 71 | 1014.1 |
| 20260905161844 | 31 | 168 | 1.6 | 3.2 | 0.00 | 0.00 | 0.00 | 68 | 1014.1 |
| 20260905161344 | 30 | 248 | 0.0 | 1.6 | 0.00 | 0.00 | 0.00 | 67 | 1014.2 |
| 20260905160843 | 29 | 130 | 3.2 | 4.8 | 0.00 | 0.00 | 0.00 | 70 | 1014.3 |
| 20260905160337 | 28 | 140 | 3.2 | 9.7 | 0.00 | 0.00 | 0.00 | 71 | 1014.1 |
| 20260905155832 | 28 | 119 | 0.0 | 4.8 | 0.00 | 0.00 | 0.00 | 71 | 1014.2 |
| 20260905155331 | 29 | 108 | 3.2 | 6.4 | 0.00 | 0.00 | 0.00 | 70 | 1014.2 |
| 20260905154830 | 30 | 100 | 3.2 | 6.4 | 0.00 | 0.00 | 0.00 | 67 | 1014.4 |
| 20260905154326 | 30 | 142 | 6.4 | 11.3 | 0.00 | 0.00 | 0.00 | 67 | 1014.4 |
| 20260905153821 | 30 | 132 | 3.2 | 11.3 | 0.00 | 0.00 | 0.00 | 67 | 1014.2 |
| 20260905153318 | 30 | 124 | 3.2 | 6.4 | 0.00 | 0.00 | 0.00 | 67 | 1014.4 |
| 20260905152817 | 30 | 94 | 1.6 | 6.4 | 0.00 | 0.00 | 0.00 | 68 | 1014.5 |
| 20260905152316 | 30 | 123 | 4.8 | 9.7 | 0.00 | 0.00 | 0.00 | 68 | 1014.2 |
| 20260905151812 | 29 | 76 | 3.2 | 6.4 | 0.00 | 0.00 | 0.00 | 70 | 1014.3 |
| 20260905151308 | 29 | 302 | 4.8 | 9.7 | 0.00 | 0.00 | 0.00 | 69 | 1014.0 |
| 20260905150807 | 29 | 196 | 8.0 | 11.3 | 0.00 | 0.00 | 0.00 | 69 | 1014.2 |
| 20260905150307 | 29 | 170 | 6.4 | 9.7 | 0.00 | 0.00 | 0.00 | 71 | 1014.5 |
| 20260905145804 | 28 | 76 | 3.2 | 11.3 | 0.00 | 0.00 | 0.00 | 73 | 1014.6 |
| 20260905145259 | 28 | 100 | 8.0 | 12.9 | 0.00 | 0.00 | 0.00 | 73 | 1014.6 |
| 20260905144758 | 28 | 130 | 1.6 | 12.9 | 0.00 | 0.00 | 0.00 | 75 | 1014.4 |
| 20260905144254 | 28 | 106 | 3.2 | 11.3 | 0.00 | 0.00 | 0.00 | 74 | 1014.3 |
| 20260905143752 | 28 | 191 | 4.8 | 11.3 | 0.00 | 0.00 | 0.00 | 74 | 1014.3 |
| 20260905143253 | 28 | 190 | 6.4 | 6.4 | 0.00 | 0.00 | 0.00 | 76 | 1014.3 |
| 20260905142751 | 27 | 142 | 3.2 | 9.7 | 0.00 | 0.00 | 0.00 | 76 | 1014.5 |
| 20260905142246 | 27 | 74 | 3.2 | 9.7 | 0.00 | 0.00 | 0.00 | 77 | 1014.3 |
| 20260905141742 | 28 | 95 | 6.4 | 9.7 | 0.00 | 0.00 | 0.00 | 77 | 1014.2 |
| 20260905141237 | 28 | 94 | 4.8 | 4.8 | 0.00 | 0.00 | 0.00 | 79 | 1014.2 |
| 20260905140733 | 27 | 156 | 3.2 | 11.3 | 0.00 | 0.00 | 0.00 | 81 | 1014.4 |
| 20260905140227 | 27 | 92 | 4.8 | 9.7 | 0.00 | 0.00 | 0.00 | 82 | 1014.3 |
| 20260905135726 | 27 | 134 | 3.2 | 12.9 | 0.00 | 0.00 | 0.00 | 84 | 1014.4 |
| 20260905135222 | 27 | 106 | 4.8 | 6.4 | 0.00 | 0.00 | 0.00 | 83 | 1014.3 |
| 20260905134722 | 27 | 147 | 12.9 | 14.5 | 0.00 | 0.00 | 0.00 | 83 | 1014.4 |
| 20260905134221 | 27 | 169 | 3.2 | 9.7 | 0.00 | 0.00 | 0.00 | 86 | 1014.3 |
| 20260905133716 | 26 | 128 | 4.8 | 9.7 | 0.00 | 0.00 | 0.00 | 88 | 1014.2 |
| 20260905133211 | 25 | 93 | 6.4 | 9.7 | 0.00 | 0.00 | 0.00 | 91 | 1014.3 |
| 20260905132710 | 25 | 123 | 6.4 | 11.3 | 0.00 | 0.00 | 0.00 | 94 | 1014.2 |
| 20260905132206 | 24 | 44 | 1.6 | 6.4 | 0.00 | 0.00 | 0.00 | 95 | 1014.3 |
| 20260905131701 | 25 | 88 | 6.4 | 6.4 | 0.00 | 0.00 | 0.00 | 94 | 1014.1 |
| 20260905131156 | 25 | 151 | 0.0 | 0.0 | 0.00 | 0.00 | 0.00 | 94 | 1014.0 |
| 20260905130656 | 25 | 151 | 0.0 | 0.0 | 0.00 | 0.00 | 0.00 | 94 | 1013.9 |
| 20260905130155 | 24 | 151 | 0.0 | 0.0 | 0.00 | 0.00 | 0.00 | 95 | 1013.9 |
| 20260905125650 | 24 | 151 | 0.0 | 0.0 | 0.00 | 0.00 | 0.00 | 95 | 1013.9 |
| 20260905125146 | 24 | 151 | 0.0 | 0.0 | 0.00 | 0.00 | 0.00 | 95 | 1014.0 |
| 20260905124642 | 25 | 151 | 0.0 | 0.0 | 0.00 | 0.00 | 0.00 | 95 | 1013.8 |
| 20260905124138 | 25 | 151 | 0.0 | 0.0 | 0.00 | 0.00 | 0.00 | 94 | 1013.8 |
| 20260905123632 | 25 | 151 | 0.0 | 0.0 | 0.00 | 0.00 | 0.00 | 94 | 1014.0 |
| 20260905123130 | 25 | 151 | 0.0 | 0.0 | 0.00 | 0.00 | 0.00 | 94 | 1013.8 |
| 20260905122629 | 24 | 151 | 0.0 | 0.0 | 0.00 | 0.00 | 0.00 | 95 | 1013.7 |
| 20260905122124 | 24 | 151 | 0.0 | 0.0 | 0.00 | 0.00 | 0.00 | 96 | 1013.6 |
| 20260905121619 | 24 | 151 | 0.0 | 0.0 | 0.00 | 0.00 | 0.00 | 96 | 1013.6 |
| 20260905121114 | 24 | 150 | 0.0 | 1.6 | 0.00 | 0.00 | 0.00 | 97 | 1013.6 |
| 20260905120613 | 23 | 150 | 0.0 | 0.0 | 0.00 | 0.00 | 0.00 | 97 | 1013.7 |
| 20260905120108 | 23 | 150 | 0.0 | 0.0 | 0.00 | 0.00 | 0.00 | 97 | 1013.6 |
| 20260905115608 | 23 | 150 | 0.0 | 0.0 | 0.00 | 0.00 | 0.00 | 98 | 1013.4 |
| 20260905115102 | 23 | 150 | 0.0 | 0.0 | 0.00 | 0.00 | 0.00 | 97 | 1013.6 |
| 20260905114602 | 23 | 150 | 0.0 | 0.0 | 0.00 | 0.00 | 0.00 | 97 | 1013.5 |
| 20260905114101 | 23 | 150 | 0.0 | 0.0 | 0.00 | 0.00 | 0.00 | 97 | 1013.5 |
| 20260905113556 | 23 | 150 | 0.0 | 0.0 | 0.00 | 0.00 | 0.00 | 97 | 1013.4 |
| 20260905113051 | 23 | 150 | 0.0 | 0.0 | 0.00 | 0.00 | 0.00 | 98 | 1013.4 |
| 20260905112546 | 23 | 150 | 0.0 | 0.0 | 0.00 | 0.00 | 0.00 | 98 | 1013.4 |
| 20260905112042 | 23 | 150 | 0.0 | 0.0 | 0.00 | 0.00 | 0.00 | 98 | 1013.5 |
| 20260905111537 | 23 | 150 | 0.0 | 0.0 | 0.00 | 0.00 | 0.00 | 98 | 1013.5 |
| 20260905111036 | 23 | 150 | 0.0 | 0.0 | 0.00 | 0.00 | 0.00 | 98 | 1013.5 |
| 20260905110535 | 23 | 150 | 0.0 | 0.0 | 0.00 | 0.00 | 0.00 | 98 | 1013.4 |
| 20260905110031 | 23 | 150 | 0.0 | 0.0 | 0.00 | 0.00 | 0.00 | 98 | 1013.2 |
| 20260905105530 | 22 | 150 | 0.0 | 0.0 | 0.00 | 0.00 | 0.00 | 98 | 1013.4 |
| 20260905105030 | 22 | 150 | 0.0 | 0.0 | 0.00 | 0.00 | 0.00 | 97 | 1013.5 |
| 20260905104526 | 22 | 150 | 0.0 | 0.0 | 0.00 | 0.00 | 0.00 | 97 | 1013.7 |